User: anonymous   Login
Location: Warwick
(41.7000°N, 71.4170°W)
Time: 07:05:29
(UTC-04:00)
Language:

Hubble Space Telescope - Orbit

View from above orbital plane
View from above orbital plane
View from above satellite
View from above satellite

Ground track
Ground track

The orbit data is extracted from the following two-line orbital elements,

1 20580U 90037B   18198.67983741 +.00000408 +00000-0 +13980-4 0  9993
2 20580 028.4691 273.5322 0002936 105.9369 028.2313 15.09066293349998
Epoch (UTC): 17 July 2018 16:18:57
Eccentricity: 0.0002936
inclination: 28.4691°
perigee height: 537 km
apogee height: 541 km
right ascension of ascending node: 273.5322°
argument of perigee: 105.9369°
revolutions per day: 15.09066293
mean anomaly at epoch: 28.2313°
orbit number at epoch: 34999

The dashed part of the orbit path shows where the satellite is in the earth's shadow,  

DLR